CAPE
601 552 537 462 415 475 575 699 697 748 737 562 548 720 822 898 1016 1153 933 801 718 464 433 479 534 485 475 445 528 658 596 472 341 283 312 450 189 103 490 533 701 314 0 0 116 120 81 60 71 125 195 188 183 196 175 1 1 0 0 0 0 0 0
687 603 544 514 491 502 516 622 718 728 756 713 615 676 838 964 1056 1132 956 798 645 678 543 609 708 682 548 455 498 512 620 525 401 354 246 420 104 289 490 474 498 183 0 0 0 0 0 0 36 43 34 0 0 0 101 176 180 252 0 0 0 0 0
677 617 559 509 507 535 537 576 668 764 852 835 877 996 1029 1087 1151 1117 978 796 775 838 816 723 729 664 419 315 395 511 487 554 512 406 417 403 346 396 519 408 328 225 0 0 0 0 0 0 0 0 0 0 0 0 119 159 196 211 0 0 0 0 0
747 687 567 548 514 543 574 565 690 844 957 995 1000 1041 1151 1156 1172 1028 923 811 685 769 793 534 544 588 435 353 307 430 516 588 627 469 387 414 440 455 457 348 114 186 1 0 0 0 0 0 0 0 0 0 0 0 31 91 0 0 0 0 0 0 0
827 738 571 577 551 587 594 653 712 845 968 998 1005 1006 1054 1109 1050 872 702 645 533 617 648 672 689 566 463 421 348 445 447 466 703 674 420 442 484 484 446 214 0 0 0 0 180 0 0 0 0 0 0 0 0 0 0 0 0 0 0 0 0 0 0
864 714 595 566 551 583 624 743 778 798 903 964 932 999 966 965 835 667 654 661 789 780 656 655 543 519 508 404 396 416 400 427 642 715 609 465 514 506 464 338 0 0 0 0 10 0 89 0 0 0 0 0 0 0 0 0 0 0 0 0 0 0 0
762 651 618 581 620 648 695 691 735 746 827 884 980 1101 1112 933 808 809 778 812 753 637 587 555 529 514 547 438 427 449 639 579 655 649 596 492 523 529 473 395 5 0 0 0 0 0 67 0 0 0 0 0 0 0 0 0 0 0 0 0 0 0 0
722 670 641 622 617 660 679 634 658 707 724 774 950 1139 1127 1000 692 952 970 917 704 590 563 531 427 395 533 471 445 537 640 678 636 612 531 443 430 508 486 143 0 0 0 0 0 0 0 0 0 0 0 0 0 0 0 0 0 0 0 0 0 0 0
833 707 656 627 623 665 672 630 599 616 707 754 979 1089 971 870 817 987 1051 990 832 666 576 573 448 493 485 494 482 760 765 759 685 617 638 688 528 509 514 210 0 1 0 0 0 0 186 0 0 0 0 0 0 0 0 0 0 0 0 0 0 0 0
952 730 601 618 655 679 693 687 623 672 812 912 1048 1025 943 941 1123 1092 952 802 807 807 753 605 487 480 450 542 541 817 858 803 815 738 721 763 753 650 517 344 5 0 0 278 46 113 238 0 0 0 0 0 0 0 0 0 0 0 0 0 0 0 0
901 789 610 600 624 602 710 710 730 800 955 1057 1093 1141 965 1115 1147 994 868 1012 964 910 850 688 575 525 509 696 625 826 952 928 868 733 675 676 685 671 594 471 353 0 0 21 94 22 246 186 0 0 0 0 0 0 0 0 0 0 0 0 0 0 0
757 919 774 673 593 648 746 746 759 925 981 1060 1010 1067 985 1078 1064 914 907 986 1015 920 844 751 641 582 555 707 726 836 955 919 804 699 610 564 672 771 664 468 440 122 0 0 19 55 14 0 0 0 1 0 0 0 0 0 0 0 0 0 0 0 0
733 737 834 714 748 740 777 743 822 954 1089 1028 901 904 800 826 939 974 916 914 954 901 866 829 707 614 507 670 701 696 745 719 723 634 562 542 714 829 728 684 715 606 395 0 14 200 450 164 0 0 0 0 0 0 0 0 0 0 0 0 0 0 0
716 671 705 817 852 877 843 967 1010 1044 997 841 855 862 763 827 872 939 892 898 889 869 783 718 656 649 584 574 558 482 542 672 736 583 396 549 672 748 715 714 827 704 543 403 32 248 567 702 445 55 162 0 0 0 0 0 0 0 0 0 0 0 0
644 560 730 636 823 917 1046 1172 1166 980 650 618 601 623 480 556 752 774 816 849 808 745 663 613 588 564 552 455 496 566 585 616 690 711 504 483 595 710 795 744 836 808 541 483 428 512 705 865 654 247 174 190 19 0 0 0 0 0 0 0 0 0 0
406 498 547 613 796 950 1149 1032 908 660 608 581 499 492 416 596 639 680 798 814 738 669 600 540 562 512 467 496 535 616 638 626 638 609 541 354 447 556 657 798 881 910 707 663 574 614 826 876 702 388 190 123 94 0 0 0 0 0 0 0 0 0 0
420 414 334 535 877 996 988 741 693 642 609 359 0 0 458 526 468 508 584 615 662 611 542 532 533 481 463 518 565 576 607 581 583 579 490 420 458 514 599 631 823 872 795 771 686 682 734 701 524 390 221 175 123 0 0 0 0 0 0 0 0 0 0
456 428 299 550 656 846 746 709 689 462 339 320 0 0 0 149 462 520 539 521 510 524 537 550 516 453 506 542 624 588 582 549 598 600 511 486 586 594 658 750 781 721 902 880 862 817 704 642 427 273 190 202 170 50 42 22 0 0 0 0 0 0 0
468 420 302 386 440 626 773 764 571 314 306 344 262 0 0 0 0 366 477 531 514 473 464 492 495 514 571 583 622 582 530 520 594 620 616 622 691 680 1016 1050 918 871 922 878 838 730 651 478 372 322 229 162 101 51 45 12 0 0 0 0 0 0 0
320 404 418 355 398 505 715 626 395 274 181 0 0 0 0 0 0 0 0 316 479 264 0 0 226 504 507 532 573 544 512 486 525 514 544 643 793 852 1034 1114 966 944 946 913 685 589 393 318 316 257 187 95 66 48 30 0 0 0 0 0 0 0 0
273 300 362 192 143 414 466 398 308 184 150 15 0 0 0 0 0 0 0 0 0 0 0 0 0 252 367 426 514 588 573 502 474 408 392 646 738 844 982 1038 1031 988 1006 896 735 452 283 269 198 219 110 0 0 20 0 0 0 0 0 0 0 0 0
310 315 364 240 23 365 176 264 205 226 178 13 0 0 0 0 0 0 0 0 0 0 0 0 0 0 0 50 56 55 86 545 491 124 65 580 730 921 880 921 1012 938 940 776 502 412 382 162 103 159 0 0 0 0 0 0 0 0 0 0 0 0 0
432 323 159 60 269 6 219 187 177 187 121 0 0 0 0 0 0 0 0 0 0 0 0 0 0 0 0 0 0 0 0 0 0 0 0 0 552 600 602 712 751 668 598 502 413 377 330 166 19 0 0 0 0 0 0 0 0 0 0 0 0 0 0
368 313 292 208 248 216 241 139 158 136 39 0 0 0 0 0 0 0 0 0 0 0 0 0 0 0 0 0 0 0 0 0 0 0 48 436 499 511 505 464 367 421 404 383 408 373 346 265 58 0 0 0 0 0 0 0 0 0 0 0 0 0 0
404 377 336 262 10 199 177 118 156 70 0 0 0 0 0 0 0 0 0 0 0 0 0 0 0 0 0 0 0 0 0 0 0 0 0 140 125 136 0 0 0 73 94 0 0 125 196 242 134 41 0 0 0 0 0 0 0 0 0 0 0 0 0
113 249 353 284 212 218 152 39 72 19 0 0 0 0 0 0 0 0 0 0 0 0 0 0 0 0 0 0 0 0 0 0 0 0 0 0 0 0 0 0 0 0 0 0 0 0 0 125 129 82 74 0 0 0 0 0 0 0 0 0 0 0 0
161 229 158 178 20 105 185 70 7 0 0 0 0 0 0 0 0 0 0 0 0 0 0 0 0 0 0 4 8 0 0 2 0 0 0 0 0 0 0 0 0 0 0 0 0 0 0 64 92 90 85 81 73 37 0 0 0 0 0 0 0 0 0
54 130 207 239 124 91 108 43 3 0 0 0 0 0 0 0 0 0 0 0 0 0 0 0 0 0 1 0 0 0 0 5 1 0 0 0 0 0 0 0 0 0 0 0 0 0 0 41 66 42 0 62 51 0 0 0 0 0 0 0 0 0 0
3 179 46 21 57 22 15 10 0 0 6 0 0 0 3 0 0 0 0 0 0 0 0 0 0 0 0 1 0 0 0 0 0 0 0 0 0 0 0 0 0 0 0 0 0 0 0 0 0 0 0 0 0 0 0 0 0 0 0 0 0 0 0
106 6 10 63 43 28 20 62 13 3 13 2 0 1 3 2 0 0 0 0 0 0 0 0 0 0 0 0 0 0 0 0 0 0 0 0 0 0 0 0 0 0 0 0 0 0 0 0 0 0 0 0 0 0 0 0 0 89 134 109 58 179 52
36 22 6 31 38 136 69 30 1 6 22 6 0 1 3 2 1 0 0 0 0 0 0 0 0 0 10 19 24 0 0 0 0 0 0 0 0 0 0 0 0 0 0 0 0 0 0 0 0 0 0 0 0 0 0 0 0 0 0 0 0 0 16
6 7 20 12 151 93 50 13 0 6 6 2 0 0 2 4 2 0 0 0 0 0 0 0 0 0 0 57 62 58 42 26 23 26 22 18 14 14 32 41 26 26 0 0 0 0 0 0 0 0 0 0 0 0 0 0 0 0 0 0 0 0 0
1 3 2 16 26 16 15 13 2 2 3 5 0 0 2 2 3 1 0 0 0 0 0 3 2 4 2 41 77 88 82 83 90 100 106 100 89 88 86 86 88 78 70 68 61 36 0 0 0 0 0 0 0 0 0 0 0 0 0 0 0 0 0
24 14 14 1 8 35 5 0 1 0 4 3 0 6 19 1 3 0 0 0 0 1 3 4 2 3 1 30 57 0 0 0 0 39 102 112 105 112 110 101 94 71 35 16 5 0 0 0 0 0 0 0 0 0 0 0 0 0 0 0 0 0 0
3 14 24 23 0 0 1 1 1 3 7 2 3 13 6 3 2 0 0 0 1 3 3 1 1 3 1 0 0 0 0 0 0 0 0 0 0 0 0 0 3 0 0 0 0 0 0 0 0 0 0 0 0 0 0 0 0 0 0 0 0 0 0
0 0 1 0 0 0 0 0 0 0 0 0 2 2 0 0 0 2 0 0 1 2 0 0 0 1 0 0 0 0 0 24 0 0 0 0 0 0 0 0 0 0 0 0 0 0 0 0 0 0 0 0 0 0 0 0 0 0 1 2 1 0 0
2 0 0 0 0 0 0 0 0 0 0 2 2 0 0 0 0 0 0 0 0 0 0 0 0 2 8 5 0 2 15 16 34 6 0 0 0 0 0 0 0 0 0 0 0 0 0 0 0 0 0 0 0 1 2 2 2 1 0 0 0 0 0
Wind_Speed
15 14 13 13 11 11 10 10 12 13 13 14 14 15 18 12 10 11 12 14 17 19 18 15 14 15 15 14 12 10 12 10 9 10 9 8 8 7 11 12 13 15 nan nan 16 13 nan nan nan 14 13 12 9 9 10 nan nan nan nan nan nan nan nan
17 16 14 13 11 10 9 10 11 13 14 14 14 15 15 12 11 12 15 18 19 18 16 15 16 16 13 12 11 10 9 9 8 9 10 7 9 10 14 14 16 16 nan nan nan nan nan nan nan nan nan nan nan nan 11 11 12 13 nan nan nan nan nan
18 17 14 12 10 10 9 9 10 12 14 14 14 16 16 14 13 15 19 18 17 16 14 14 17 16 12 10 9 9 9 10 9 9 7 9 10 11 12 14 16 17 nan nan nan nan nan nan nan nan nan nan nan nan 10 11 13 13 nan nan nan nan nan
18 17 15 11 9 8 8 9 9 11 13 14 15 15 16 15 18 19 20 18 16 14 12 14 15 14 12 10 10 10 10 10 9 8 10 11 13 13 13 15 17 16 nan nan nan nan nan nan nan nan nan nan nan nan nan nan nan nan nan nan nan nan nan
17 16 14 11 9 7 7 8 9 12 11 13 14 15 14 17 19 18 20 17 15 13 12 13 14 15 14 13 13 11 11 11 11 11 12 12 13 13 14 14 nan nan nan nan 15 nan nan nan nan nan nan nan nan nan nan nan nan nan nan nan nan nan nan
15 15 14 11 8 6 7 8 10 10 12 11 12 12 12 18 18 19 15 14 13 13 13 13 15 16 15 15 14 13 13 12 10 11 12 11 12 14 13 15 nan nan nan nan nan nan nan nan nan nan nan nan nan nan nan nan nan nan nan nan nan nan nan
12 13 13 11 9 6 7 7 7 9 11 9 10 10 15 22 16 14 14 12 13 14 14 14 16 17 17 16 15 13 13 11 11 12 12 13 13 14 16 18 nan nan nan nan nan nan nan nan nan nan nan nan nan nan nan nan nan nan nan nan nan nan nan
10 11 11 11 9 7 6 7 7 10 10 9 9 11 20 20 16 13 13 14 14 13 14 15 16 18 18 17 15 13 13 14 13 13 14 14 14 14 15 15 nan nan nan nan nan nan nan nan nan nan nan nan nan nan nan nan nan nan nan nan nan nan nan
9 9 11 11 8 6 6 7 7 8 9 9 11 12 19 17 17 15 15 14 15 14 14 15 16 17 18 17 15 13 14 15 15 14 13 13 12 13 13 14 nan nan nan nan nan nan 14 nan nan nan nan nan nan nan nan nan nan nan nan nan nan nan nan
9 7 9 10 9 7 7 8 8 8 10 11 11 13 17 17 18 18 16 15 15 14 14 16 17 18 19 18 16 16 16 16 15 13 12 11 11 13 13 13 nan nan nan 13 nan 15 17 nan nan nan nan nan nan nan nan nan nan nan nan nan nan nan nan
10 6 7 10 11 9 8 8 10 11 11 12 14 14 16 17 17 18 17 15 15 16 15 18 19 19 19 19 18 17 17 16 15 14 11 12 12 12 13 12 13 nan nan nan nan nan 15 16 nan nan nan nan nan nan nan nan nan nan nan nan nan nan nan
12 7 7 10 12 10 8 8 9 10 13 14 15 14 15 17 18 17 16 16 16 16 17 19 20 19 19 19 18 17 17 15 14 12 12 12 12 12 12 12 13 13 nan nan nan nan nan nan nan nan nan nan nan nan nan nan nan nan nan nan nan nan nan
14 12 10 10 11 10 9 9 9 11 13 14 14 15 15 16 17 17 15 16 16 16 16 19 20 19 18 18 18 16 15 15 13 12 12 12 12 12 12 13 13 12 11 nan nan 11 13 13 nan nan nan nan nan nan nan nan nan nan nan nan nan nan nan
20 23 19 11 11 11 10 9 9 10 13 13 15 16 16 15 15 15 16 16 17 16 17 19 19 19 18 18 18 16 15 14 13 13 12 11 13 13 12 12 12 12 12 11 nan 10 13 13 14 nan 15 nan nan nan nan nan nan nan nan nan nan nan nan
17 18 20 12 10 10 11 10 10 12 13 12 14 16 16 15 15 15 17 18 18 17 17 19 19 19 18 17 17 16 14 13 14 14 13 12 14 14 13 12 12 12 13 11 11 11 13 14 15 16 16 17 nan nan nan nan nan nan nan nan nan nan nan
18 17 15 11 8 9 9 11 12 13 13 12 12 14 15 15 15 16 18 19 18 17 16 17 18 18 18 17 15 14 13 13 14 14 13 13 14 15 14 13 12 13 15 14 13 13 15 15 15 14 15 16 nan nan nan nan nan nan nan nan nan nan nan
20 20 17 11 8 10 10 12 14 14 14 13 nan nan 14 15 15 16 19 19 18 16 16 17 17 16 16 17 15 13 13 13 14 14 13 13 13 13 13 14 13 14 15 14 13 13 15 16 14 14 15 14 13 nan nan nan nan nan nan nan nan nan nan
22 24 23 19 11 13 14 15 15 16 16 14 nan nan nan 16 16 17 18 18 18 18 16 17 17 16 16 16 15 14 13 13 13 13 13 12 12 13 14 13 13 14 15 14 13 13 14 14 13 14 14 14 12 nan nan nan nan nan nan nan nan nan nan
20 20 24 22 18 16 17 15 16 18 18 16 17 nan nan nan nan 17 19 19 20 20 19 16 16 17 17 17 16 14 13 11 11 12 13 13 13 13 13 12 14 14 15 13 12 13 14 13 14 15 14 14 13 nan nan nan nan nan nan nan nan nan nan
18 20 24 26 24 19 16 17 17 19 19 nan nan nan nan nan nan nan nan 24 23 22 nan nan 19 18 17 18 17 15 14 12 11 11 12 12 12 13 13 13 14 15 14 14 13 12 14 14 15 16 15 nan nan nan nan nan nan nan nan nan nan nan nan
19 19 23 29 28 18 12 17 17 20 22 nan nan nan nan nan nan nan nan nan nan nan nan nan nan 21 20 19 18 17 15 14 13 12 13 14 16 15 14 14 15 16 16 14 14 15 17 17 18 19 20 nan nan nan nan nan nan nan nan nan nan nan nan
22 21 23 27 nan 23 16 18 19 22 26 nan nan nan nan nan nan nan nan nan nan nan nan nan nan nan nan nan nan nan nan 17 16 17 nan 17 17 16 16 18 18 18 17 16 17 17 18 19 21 23 nan nan nan nan nan nan nan nan nan nan nan nan nan
19 21 20 nan 25 nan 24 25 24 26 29 nan nan nan nan nan nan nan nan nan nan nan nan nan nan nan nan nan nan nan nan nan nan nan nan nan 19 20 21 22 21 21 21 22 22 23 24 22 nan nan nan nan nan nan nan nan nan nan nan nan nan nan nan
21 20 19 19 21 27 26 27 29 28 nan nan nan nan nan nan nan nan nan nan nan nan nan nan nan nan nan nan nan nan nan nan nan nan nan 23 22 22 23 24 23 25 25 25 26 29 29 30 nan nan nan nan nan nan nan nan nan nan nan nan nan nan nan
25 21 21 19 nan 24 27 29 31 nan nan nan nan nan nan nan nan nan nan nan nan nan nan nan nan nan nan nan nan nan nan nan nan nan nan 26 25 24 nan nan nan nan nan nan nan 28 32 36 38 nan nan nan nan nan nan nan nan nan nan nan nan nan nan
25 24 22 20 22 28 29 nan nan nan nan nan nan nan nan nan nan nan nan nan nan nan nan nan nan nan nan nan nan nan nan nan nan nan nan nan nan nan nan nan nan nan nan nan nan nan nan 34 37 nan nan nan nan nan nan nan nan nan nan nan nan nan nan
26 25 25 27 nan 28 28 nan nan nan nan nan nan nan nan nan nan nan nan nan nan nan nan nan nan nan nan nan nan nan nan nan nan nan nan nan nan nan nan nan nan nan nan nan nan nan nan nan nan nan nan nan nan nan nan nan nan nan nan nan nan nan nan
nan 24 28 29 27 nan 30 nan nan nan nan nan nan nan nan nan nan nan nan nan nan nan nan nan nan nan nan nan nan nan nan nan nan nan nan nan nan nan nan nan nan nan nan nan nan nan nan nan nan nan nan nan nan nan nan nan nan nan nan nan nan nan nan
nan 30 nan nan nan nan nan nan nan nan nan nan nan nan nan nan nan nan nan nan nan nan nan nan nan nan nan nan nan nan nan nan nan nan nan nan nan nan nan nan nan nan nan nan nan nan nan nan nan nan nan nan nan nan nan nan nan nan nan nan nan nan nan
31 nan nan nan nan nan nan nan nan nan nan nan nan nan nan nan nan nan nan nan nan nan nan nan nan nan nan nan nan nan nan nan nan nan nan nan nan nan nan nan nan nan nan nan nan nan nan nan nan nan nan nan nan nan nan nan nan nan 41 42 nan 41 nan
nan nan nan nan nan 34 nan nan nan nan nan nan nan nan nan nan nan nan nan nan nan nan nan nan nan nan nan nan nan nan nan nan nan nan nan nan nan nan nan nan nan nan nan nan nan nan nan nan nan nan nan nan nan nan nan nan nan nan nan nan nan nan nan
nan nan nan nan 33 nan nan nan nan nan nan nan nan nan nan nan nan nan nan nan nan nan nan nan nan nan nan nan nan nan nan nan nan nan nan nan nan nan nan nan nan nan nan nan nan nan nan nan nan nan nan nan nan nan nan nan nan nan nan nan nan nan nan
nan nan nan nan nan nan nan nan nan nan nan nan nan nan nan nan nan nan nan nan nan nan nan nan nan nan nan nan nan nan nan nan nan 43 41 40 nan nan nan nan nan nan nan nan nan nan nan nan nan nan nan nan nan nan nan nan nan nan nan nan nan nan nan
nan nan nan nan nan nan nan nan nan nan nan nan nan nan nan nan nan nan nan nan nan nan nan nan nan nan nan nan nan nan nan nan nan nan 40 39 38 39 42 43 nan nan nan nan nan nan nan nan nan nan nan nan nan nan nan nan nan nan nan nan nan nan nan
nan nan nan nan nan nan nan nan nan nan nan nan nan nan nan nan nan nan nan nan nan nan nan nan nan nan nan nan nan nan nan nan nan nan nan nan nan nan nan nan nan nan nan nan nan nan nan nan nan nan nan nan nan nan nan nan nan nan nan nan nan nan nan
nan nan nan nan nan nan nan nan nan nan nan nan nan nan nan nan nan nan nan nan nan nan nan nan nan nan nan nan nan nan nan nan nan nan nan nan nan nan nan nan nan nan nan nan nan nan nan nan nan nan nan nan nan nan nan nan nan nan nan nan nan nan nan
nan nan nan nan nan nan nan nan nan nan nan nan nan nan nan nan nan nan nan nan nan nan nan nan nan nan nan nan nan nan nan nan nan nan nan nan nan nan nan nan nan nan nan nan nan nan nan nan nan nan nan nan nan nan nan nan nan nan nan nan nan nan nan
Wind_Direction
288 283 277 272 267 257 256 248 245 241 241 241 244 239 240 240 240 242 235 231 230 235 245 253 255 250 248 245 247 248 241 242 257 267 261 250 272 234 229 236 226 242 nan nan 245 253 nan nan nan 219 220 221 221 214 240 nan nan nan nan nan nan nan nan
278 273 267 266 267 263 261 245 245 242 243 241 244 247 257 260 252 240 234 234 236 240 246 251 251 255 261 260 255 254 252 245 249 245 257 257 243 245 242 230 243 251 nan nan nan nan nan nan nan nan nan nan nan nan 242 243 254 255 nan nan nan nan nan
278 271 268 272 269 260 263 255 249 247 245 243 242 244 250 250 243 235 238 242 243 245 242 250 256 258 256 262 268 261 253 251 244 248 257 254 246 241 241 252 248 248 nan nan nan nan nan nan nan nan nan nan nan nan 238 251 257 252 nan nan nan nan nan
288 282 276 277 272 267 267 262 257 250 242 241 240 240 244 244 235 233 240 241 246 244 241 245 255 261 261 263 262 257 252 251 245 242 234 245 252 250 247 260 263 271 nan nan nan nan nan nan nan nan nan nan nan nan nan nan nan nan nan nan nan nan nan
293 287 287 282 279 284 275 267 254 247 238 234 235 237 239 241 240 237 236 238 244 245 246 249 251 257 260 257 256 261 256 246 243 244 243 254 255 254 253 256 nan nan nan nan 261 nan nan nan nan nan nan nan nan nan nan nan nan nan nan nan nan nan nan
292 292 287 280 274 278 271 264 257 250 241 235 235 241 241 248 248 248 248 250 250 251 254 255 254 257 262 260 260 258 258 257 257 259 259 264 261 262 261 252 nan nan nan nan nan nan nan nan nan nan nan nan nan nan nan nan nan nan nan nan nan nan nan
287 287 282 277 274 271 270 275 268 253 245 240 239 242 245 245 251 255 260 260 257 259 259 258 260 257 257 259 259 257 264 262 254 262 264 260 256 256 255 257 nan nan nan nan nan nan nan nan nan nan nan nan nan nan nan nan nan nan nan nan nan nan nan
271 279 276 269 271 278 273 274 256 242 242 234 239 239 247 255 256 258 263 266 264 265 260 257 259 258 255 254 254 251 256 258 256 257 256 259 260 257 251 254 nan nan nan nan nan nan nan nan nan nan nan nan nan nan nan nan nan nan nan nan nan nan nan
240 261 265 257 256 270 280 268 253 239 233 233 231 241 255 272 278 276 270 267 267 263 258 259 259 261 261 261 256 256 258 251 258 258 257 260 259 258 255 246 nan nan nan nan nan nan 253 nan nan nan nan nan nan nan nan nan nan nan nan nan nan nan nan
223 254 273 264 258 248 256 256 250 241 235 237 242 242 260 269 278 277 272 272 270 262 258 258 257 259 261 263 263 263 262 254 260 261 256 260 255 252 249 251 nan nan nan 239 nan 246 249 nan nan nan nan nan nan nan nan nan nan nan nan nan nan nan nan
188 223 251 258 250 244 240 244 240 246 249 252 252 248 254 264 268 275 276 275 271 266 264 258 254 255 258 262 264 263 258 257 255 248 245 249 247 242 241 237 229 nan nan nan nan nan 243 245 nan nan nan nan nan nan nan nan nan nan nan nan nan nan nan
181 202 228 242 245 242 240 240 245 254 256 258 260 258 258 261 267 274 277 276 272 270 262 258 254 253 254 259 260 258 250 247 244 243 236 238 235 236 235 232 225 227 nan nan nan nan nan nan nan nan nan nan nan nan nan nan nan nan nan nan nan nan nan
199 198 219 234 242 241 237 240 250 259 270 266 265 265 264 264 270 277 277 279 275 268 264 258 256 253 251 250 254 248 240 237 234 236 232 224 227 227 229 226 224 229 226 nan nan 216 222 223 nan nan nan nan nan nan nan nan nan nan nan nan nan nan nan
221 197 189 213 234 241 242 244 254 261 261 268 272 273 274 277 280 282 279 280 278 272 266 262 259 257 252 248 246 241 233 229 231 227 222 219 218 222 223 221 219 218 223 227 nan 216 219 223 225 nan 232 nan nan nan nan nan nan nan nan nan nan nan nan
240 216 184 185 227 241 250 253 253 253 259 263 270 274 278 281 284 286 285 284 281 276 270 265 264 262 260 252 245 239 234 230 226 223 216 216 215 217 219 223 216 216 222 229 226 222 223 231 235 235 233 242 nan nan nan nan nan nan nan nan nan nan nan
233 232 208 176 222 249 250 253 254 258 258 258 259 267 271 277 282 283 284 285 284 282 277 270 266 265 263 258 252 243 240 236 232 230 223 217 218 218 223 227 225 227 229 231 231 228 230 235 236 237 238 241 nan nan nan nan nan nan nan nan nan nan nan
211 229 217 198 240 252 239 246 249 253 255 253 nan nan 258 262 265 273 278 279 280 280 276 270 266 263 263 262 255 251 248 242 234 229 228 225 225 226 230 235 232 235 236 238 235 233 232 234 237 235 239 239 245 nan nan nan nan nan nan nan nan nan nan
210 215 215 197 213 246 232 237 241 248 248 247 nan nan nan 250 259 266 273 273 270 269 271 271 271 264 259 259 259 255 249 241 233 226 225 228 230 233 235 238 238 240 245 246 235 235 233 235 236 238 238 243 245 nan nan nan nan nan nan nan nan nan nan
233 235 228 208 192 227 243 240 248 250 250 250 242 nan nan nan nan 264 265 264 262 260 260 268 272 271 268 264 263 260 252 239 227 225 226 227 231 235 237 238 239 244 249 250 239 230 231 232 235 234 232 235 242 nan nan nan nan nan nan nan nan nan nan
257 256 243 227 206 204 240 250 256 261 255 nan nan nan nan nan nan nan nan 256 256 256 nan nan 251 255 259 262 265 261 249 234 225 227 233 239 238 238 236 237 240 243 245 243 243 235 234 234 238 238 238 nan nan nan nan nan nan nan nan nan nan nan nan
249 256 252 244 227 211 247 265 259 254 253 nan nan nan nan nan nan nan nan nan nan nan nan nan nan 240 246 254 256 254 249 242 238 240 244 245 247 248 243 239 242 244 246 245 245 240 243 243 239 244 235 nan nan nan nan nan nan nan nan nan nan nan nan
245 259 269 263 nan 233 253 279 272 264 255 nan nan nan nan nan nan nan nan nan nan nan nan nan nan nan nan nan nan nan nan 256 259 260 nan 257 254 255 251 245 244 247 251 254 254 248 252 254 250 249 nan nan nan nan nan nan nan nan nan nan nan nan nan
257 263 271 nan 271 nan 253 271 277 269 263 nan nan nan nan nan nan nan nan nan nan nan nan nan nan nan nan nan nan nan nan nan nan nan nan nan 262 254 246 244 241 248 256 260 259 260 261 253 nan nan nan nan nan nan nan nan nan nan nan nan nan nan nan
267 268 276 278 269 265 263 270 266 265 nan nan nan nan nan nan nan nan nan nan nan nan nan nan nan nan nan nan nan nan nan nan nan nan nan 272 268 258 251 247 246 243 241 239 245 251 253 253 nan nan nan nan nan nan nan nan nan nan nan nan nan nan nan
272 272 276 282 nan 256 264 272 272 nan nan nan nan nan nan nan nan nan nan nan nan nan nan nan nan nan nan nan nan nan nan nan nan nan nan 265 264 262 nan nan nan nan nan nan nan 242 244 246 246 nan nan nan nan nan nan nan nan nan nan nan nan nan nan
284 289 282 272 271 266 264 nan nan nan nan nan nan nan nan nan nan nan nan nan nan nan nan nan nan nan nan nan nan nan nan nan nan nan nan nan nan nan nan nan nan nan nan nan nan nan nan 246 246 nan nan nan nan nan nan nan nan nan nan nan nan nan nan
281 287 279 270 nan 276 271 nan nan nan nan nan nan nan nan nan nan nan nan nan nan nan nan nan nan nan nan nan nan nan nan nan nan nan nan nan nan nan nan nan nan nan nan nan nan nan nan nan nan nan nan nan nan nan nan nan nan nan nan nan nan nan nan
nan 255 269 267 268 nan 275 nan nan nan nan nan nan nan nan nan nan nan nan nan nan nan nan nan nan nan nan nan nan nan nan nan nan nan nan nan nan nan nan nan nan nan nan nan nan nan nan nan nan nan nan nan nan nan nan nan nan nan nan nan nan nan nan
nan 247 nan nan nan nan nan nan nan nan nan nan nan nan nan nan nan nan nan nan nan nan nan nan nan nan nan nan nan nan nan nan nan nan nan nan nan nan nan nan nan nan nan nan nan nan nan nan nan nan nan nan nan nan nan nan nan nan nan nan nan nan nan
246 nan nan nan nan nan nan nan nan nan nan nan nan nan nan nan nan nan nan nan nan nan nan nan nan nan nan nan nan nan nan nan nan nan nan nan nan nan nan nan nan nan nan nan nan nan nan nan nan nan nan nan nan nan nan nan nan nan 263 269 nan 269 nan
nan nan nan nan nan 254 nan nan nan nan nan nan nan nan nan nan nan nan nan nan nan nan nan nan nan nan nan nan nan nan nan nan nan nan nan nan nan nan nan nan nan nan nan nan nan nan nan nan nan nan nan nan nan nan nan nan nan nan nan nan nan nan nan
nan nan nan nan 235 nan nan nan nan nan nan nan nan nan nan nan nan nan nan nan nan nan nan nan nan nan nan nan nan nan nan nan nan nan nan nan nan nan nan nan nan nan nan nan nan nan nan nan nan nan nan nan nan nan nan nan nan nan nan nan nan nan nan
nan nan nan nan nan nan nan nan nan nan nan nan nan nan nan nan nan nan nan nan nan nan nan nan nan nan nan nan nan nan nan nan nan 269 266 265 nan nan nan nan nan nan nan nan nan nan nan nan nan nan nan nan nan nan nan nan nan nan nan nan nan nan nan
nan nan nan nan nan nan nan nan nan nan nan nan nan nan nan nan nan nan nan nan nan nan nan nan nan nan nan nan nan nan nan nan nan nan 270 267 264 261 255 252 nan nan nan nan nan nan nan nan nan nan nan nan nan nan nan nan nan nan nan nan nan nan nan
nan nan nan nan nan nan nan nan nan nan nan nan nan nan nan nan nan nan nan nan nan nan nan nan nan nan nan nan nan nan nan nan nan nan nan nan nan nan nan nan nan nan nan nan nan nan nan nan nan nan nan nan nan nan nan nan nan nan nan nan nan nan nan
nan nan nan nan nan nan nan nan nan nan nan nan nan nan nan nan nan nan nan nan nan nan nan nan nan nan nan nan nan nan nan nan nan nan nan nan nan nan nan nan nan nan nan nan nan nan nan nan nan nan nan nan nan nan nan nan nan nan nan nan nan nan nan
nan nan nan nan nan nan nan nan nan nan nan nan nan nan nan nan nan nan nan nan nan nan nan nan nan nan nan nan nan nan nan nan nan nan nan nan nan nan nan nan nan nan nan nan nan nan nan nan nan nan nan nan nan nan nan nan nan nan nan nan nan nan nan